Location: Unspecified
(0.0000°N, 0.0000°E)
Time: 20:50:22
(UTC+00:00)

ISS - Pass Details

Date: 21 March 2017
Orbit: 399 x 409 km, 51.6° (Epoch: 27 March)

Event Time Altitude Azimuth Distance (km) Brightness Sun altitude
Rises 20:02:26 0° 233° (SW) 2,299 0.7 -28.8°
Reaches altitude 10° 20:04:42 10° 245° (WSW) 1,440 -0.3 -29.4°
Enters shadow 20:05:16 14° 251° (WSW) 1,246 -0.6 -29.6°
